• In Hungary
  • List of Countries
  • For 7 days
  • Water Temperature
  • Satellite Maps
  • Weather Map
  • News
  • Weather Widgets
  • user-avatar
    Login

    Hourly Weather Zaranj

    Today, 24 February, Saturday

    Time Temperature Precipitation Wind Pressure Humidity
    00:00 +18°C° 0 mm 3 mps 716 mmHg 48%
    01:00 +17°C° 0 mm 3 mps 716 mmHg 50%
    02:00 +17°C° 0 mm 3 mps 716 mmHg 52%
    03:00 +16°C° 0 mm 3 mps 716 mmHg 54%
    04:00 +16°C° 0 mm 3 mps 716 mmHg 57%
    05:00 +16°C° 0 mm 3 mps 716 mmHg 58%
    06:00 +14°C° 0 mm 3 mps 717 mmHg 59%
    07:00 +14°C° 0 mm 3 mps 717 mmHg 60%
    08:00 +17°C° 0 mm 3 mps 718 mmHg 54%
    09:00 +18°C° 0 mm 3 mps 718 mmHg 49%
    10:00 +20°C° 0 mm 2 mps 718 mmHg 42%
    11:00 +21°C° 0 mm 2 mps 718 mmHg 38%
    12:00 +23°C° 0 mm 2 mps 718 mmHg 35%
    13:00 +24°C° 0 mm 1 mps 718 mmHg 31%
    14:00 +25°C° 0 mm 1 mps 717 mmHg 29%
    15:00 +25°C° 0 mm 2 mps 717 mmHg 27%
    16:00 +26°C° 0 mm 2 mps 716 mmHg 25%
    17:00 +25°C° 0 mm 2 mps 716 mmHg 26%
    18:00 +25°C° 0 mm 2 mps 716 mmHg 27%
    19:00 +24°C° 0 mm 2 mps 716 mmHg 28%
    20:00 +24°C° 0 mm 3 mps 717 mmHg 29%
    21:00 +22°C° 0 mm 3 mps 717 mmHg 29%
    22:00 +22°C° 0 mm 3 mps 717 mmHg 30%
    23:00 +21°C° 0 mm 3 mps 717 mmHg 31%

    Tomorrow, 25 February, Sunday

    Time Temperature Precipitation Wind Pressure Humidity
    00:00 +21°C° 0 mm 3 mps 717 mmHg 31%
    01:00 +20°C° 0 mm 3 mps 717 mmHg 32%
    02:00 +20°C° 0 mm 4 mps 716 mmHg 32%
    03:00 +20°C° 0 mm 4 mps 716 mmHg 32%
    04:00 +20°C° 0 mm 4 mps 716 mmHg 33%
    05:00 +20°C° 0 mm 4 mps 716 mmHg 33%
    06:00 +19°C° 0 mm 4 mps 716 mmHg 33%
    07:00 +19°C° 0 mm 3 mps 716 mmHg 33%
    08:00 +21°C° 0 mm 4 mps 716 mmHg 31%
    09:00 +23°C° 0 mm 5 mps 717 mmHg 29%
    10:00 +26°C° 0 mm 6 mps 717 mmHg 27%
    11:00 +26°C° 0.3 mm 7 mps 716 mmHg 31%
    12:00 +26°C° 0.3 mm 7 mps 716 mmHg 35%
    13:00 +26°C° 0.3 mm 8 mps 716 mmHg 39%
    14:00 +27°C° 0 mm 7 mps 715 mmHg 33%
    15:00 +29°C° 0 mm 7 mps 715 mmHg 27%
    16:00 +30°C° 0 mm 6 mps 715 mmHg 22%
    17:00 +29°C° 0.2 mm 6 mps 715 mmHg 24%
    18:00 +28°C° 0.2 mm 5 mps 715 mmHg 27%
    19:00 +27°C° 0.2 mm 5 mps 715 mmHg 29%
    20:00 +26°C° 0.4 mm 5 mps 715 mmHg 34%
    21:00 +24°C° 0.4 mm 6 mps 715 mmHg 39%
    22:00 +23°C° 0.4 mm 6 mps 715 mmHg 44%
    23:00 +23°C° 0.1 mm 7 mps 715 mmHg 42%

    Day after tomorrow, 26 February, Monday

    Time Temperature Precipitation Wind Pressure Humidity
    00:00 +23°C° 0.1 mm 7 mps 715 mmHg 40%
    01:00 +23°C° 0.1 mm 8 mps 715 mmHg 38%
    02:00 +23°C° 0 mm 7 mps 715 mmHg 40%
    03:00 +23°C° 0 mm 7 mps 715 mmHg 41%
    04:00 +22°C° 0 mm 6 mps 714 mmHg 43%
    05:00 +22°C° 0 mm 5 mps 715 mmHg 44%
    06:00 +21°C° 0 mm 5 mps 715 mmHg 46%
    07:00 +21°C° 0 mm 4 mps 716 mmHg 47%
    08:00 +22°C° 0 mm 4 mps 716 mmHg 44%
    09:00 +23°C° 0 mm 4 mps 717 mmHg 41%
    10:00 +25°C° 0 mm 4 mps 717 mmHg 38%
    11:00 +26°C° 0 mm 4 mps 716 mmHg 34%
    12:00 +27°C° 0 mm 3 mps 716 mmHg 31%
    13:00 +27°C° 0 mm 3 mps 716 mmHg 27%
    14:00 +28°C° 0 mm 3 mps 715 mmHg 26%
    15:00 +28°C° 0 mm 3 mps 715 mmHg 24%
    16:00 +28°C° 0 mm 2 mps 714 mmHg 23%
    17:00 +27°C° 0 mm 2 mps 715 mmHg 25%
    18:00 +26°C° 0 mm 2 mps 715 mmHg 27%
    19:00 +25°C° 0 mm 2 mps 716 mmHg 29%
    20:00 +25°C° 0 mm 2 mps 716 mmHg 30%
    21:00 +24°C° 0 mm 2 mps 716 mmHg 31%
    22:00 +24°C° 0 mm 2 mps 717 mmHg 32%
    23:00 +23°C° 0 mm 2 mps 717 mmHg 33%

    27 February, Tuesday

    Time Temperature Precipitation Wind Pressure Humidity
    00:00 +21°C° 0 mm 2 mps 717 mmHg 34%
    01:00 +21°C° 0 mm 2 mps 717 mmHg 36%
    02:00 +20°C° 0 mm 3 mps 717 mmHg 38%
    03:00 +20°C° 0 mm 3 mps 717 mmHg 40%
    04:00 +19°C° 0 mm 3 mps 717 mmHg 42%
    05:00 +19°C° 0 mm 3 mps 717 mmHg 46%
    06:00 +19°C° 0 mm 3 mps 718 mmHg 49%
    07:00 +18°C° 0 mm 3 mps 718 mmHg 52%
    08:00 +20°C° 0 mm 3 mps 718 mmHg 47%
    09:00 +21°C° 0 mm 3 mps 719 mmHg 42%
    10:00 +24°C° 0 mm 3 mps 719 mmHg 37%
    11:00 +25°C° 0 mm 3 mps 719 mmHg 34%
    12:00 +26°C° 0 mm 2 mps 718 mmHg 30%
    13:00 +27°C° 0 mm 2 mps 718 mmHg 27%
    14:00 +27°C° 0 mm 2 mps 717 mmHg 25%
    15:00 +27°C° 0 mm 2 mps 717 mmHg 24%
    16:00 +28°C° 0 mm 2 mps 716 mmHg 22%
    17:00 +27°C° 0 mm 1 mps 716 mmHg 23%
    18:00 +26°C° 0 mm 1 mps 716 mmHg 24%
    19:00 +25°C° 0 mm 1 mps 717 mmHg 26%
    20:00 +25°C° 0 mm 1 mps 717 mmHg 27%
    21:00 +24°C° 0 mm 2 mps 717 mmHg 28%
    22:00 +24°C° 0 mm 2 mps 717 mmHg 29%
    23:00 +23°C° 0 mm 2 mps 717 mmHg 30%

    28 February, Wednesday

    Time Temperature Precipitation Wind Pressure Humidity
    00:00 +23°C° 0 mm 2 mps 717 mmHg 31%
    01:00 +21°C° 0 mm 2 mps 716 mmHg 32%
    02:00 +21°C° 0 mm 2 mps 716 mmHg 34%
    03:00 +20°C° 0 mm 2 mps 716 mmHg 35%
    04:00 +20°C° 0 mm 2 mps 716 mmHg 36%
    05:00 +20°C° 0 mm 2 mps 716 mmHg 38%
    06:00 +19°C° 0 mm 2 mps 716 mmHg 40%
    07:00 +19°C° 0 mm 2 mps 717 mmHg 42%
    08:00 +21°C° 0 mm 2 mps 717 mmHg 38%
    09:00 +23°C° 0 mm 2 mps 717 mmHg 35%
    10:00 +25°C° 0 mm 2 mps 717 mmHg 31%
    11:00 +26°C° 0 mm 2 mps 717 mmHg 29%
    12:00 +27°C° 0 mm 2 mps 716 mmHg 27%
    13:00 +28°C° 0 mm 2 mps 716 mmHg 25%
    14:00 +28°C° 0 mm 2 mps 715 mmHg 24%
    15:00 +29°C° 0 mm 1 mps 715 mmHg 23%
    16:00 +29°C° 0 mm 1 mps 714 mmHg 22%
    17:00 +28°C° 0.1 mm 1 mps 714 mmHg 24%
    18:00 +28°C° 0.1 mm 1 mps 714 mmHg 25%
    19:00 +27°C° 0.1 mm 1 mps 714 mmHg 27%
    20:00 +26°C° 0.1 mm 2 mps 714 mmHg 28%
    21:00 +26°C° 0.1 mm 2 mps 715 mmHg 29%
    22:00 +26°C° 0.1 mm 2 mps 715 mmHg 31%
    23:00 +25°C° 0.1 mm 3 mps 715 mmHg 34%

    1 March, Thursday

    Time Temperature Precipitation Wind Pressure Humidity
    00:00 +23°C° 0.1 mm 4 mps 714 mmHg 37%
    01:00 +23°C° 0.1 mm 4 mps 714 mmHg 40%
    02:00 +22°C° 0 mm 5 mps 714 mmHg 44%
    03:00 +21°C° 0 mm 5 mps 714 mmHg 49%
    04:00 +20°C° 0 mm 5 mps 714 mmHg 53%
    05:00 +20°C° 0 mm 5 mps 715 mmHg 55%
    06:00 +19°C° 0 mm 5 mps 715 mmHg 57%
    07:00 +19°C° 0 mm 5 mps 715 mmHg 59%
    08:00 +20°C° 0 mm 4 mps 716 mmHg 55%
    09:00 +21°C° 0 mm 4 mps 716 mmHg 51%
    10:00 +23°C° 0 mm 4 mps 717 mmHg 46%
    11:00 +25°C° 0 mm 4 mps 716 mmHg 42%
    12:00 +26°C° 0 mm 3 mps 716 mmHg 37%
    13:00 +27°C° 0 mm 3 mps 716 mmHg 33%
    14:00 +27°C° 0 mm 2 mps 715 mmHg 30%
    15:00 +28°C° 0 mm 2 mps 715 mmHg 27%
    16:00 +28°C° 0 mm 2 mps 715 mmHg 25%
    17:00 +27°C° 0 mm 2 mps 715 mmHg 25%
    18:00 +27°C° 0 mm 2 mps 715 mmHg 26%
    19:00 +26°C° 0 mm 2 mps 716 mmHg 26%
    20:00 +25°C° 0 mm 2 mps 716 mmHg 27%
    21:00 +25°C° 0 mm 2 mps 716 mmHg 28%
    22:00 +24°C° 0 mm 2 mps 716 mmHg 29%
    23:00 +22°C° 0 mm 3 mps 716 mmHg 33%
    Show more